Flag for Germany Weather past 2 weeks in Ludwigsfelde, Brandenburg, Germany

Now
67 °F

Overcast.


Feels Like: 67 °F
Forecast: 55 / 66 °F
Wind: 6 mph from Southwest

Location: Potsdam

Current Time: Jul 29, 2015 at 2:25:14 PM

Latest Report: Jul 29, 2015 at 2:00 PM


Visibility: 31 mi

Pressure: 29.67 "Hg

Humidity: 45%

Dew point: 45 °F

Location of LudwigsfeldeLocation

Historic Weather in Ludwigsfelde — Graph

°F

Ludwigsfelde temperature yesterday

Maximum temperature yesterday: 67 °F (at 3:00 PM)
Minimum temperature yesterday: 57 °F (at 5:00 AM)
Average temperature yesterday: 62 °F

Past Weeks' High & Low Weather Summary

 TemperatureHumidityPressure
High90 °F (Jul 17, 5:00 PM)100% (Jul 15, 1:00 AM)30.10 "Hg (Jul 15, 1:00 AM)
Low54 °F (Jul 27, 5:00 AM)35% (Jul 17, 6:00 PM)29.55 "Hg (Jul 27, 4:00 PM)
Average68 °F69%29.86 "Hg
* Reported Jul 14 1:00 PM — Jul 29 1:00 PM, Ludwigsfelde, Weather by CustomWeather, © 2015

Note: Actual official high and low records may vary slightly from our data, if they occured in-between our weather recording intervals... More about our weather records

Advertising

Ludwigsfelde weather history for previous 24 hours

 ConditionsComfort  
Time TempWeatherWind HumidityBarometerVisibility
1:00 PM
Wed, Jul 29
69 °FPartly sunny.9 mph39%29.67 "Hg34 mi
12:00 PM64 °FPartly sunny.6 mph56%29.69 "Hg34 mi
11:00 AM65 °FPartly sunny.9 mph56%29.71 "Hg31 mi
10:00 AM63 °FPartly sunny.8 mph60%29.72 "Hg28 mi
9:00 AM61 °FScattered clouds.7 mph63%29.72 "Hg28 mi
8:00 AM58 °FScattered clouds.6 mph71%29.72 "Hg28 mi
7:00 AM55 °FPassing clouds.7 mph77%29.73 "Hg22 mi
6:00 AM55 °FPassing clouds.6 mph79%29.73 "Hg22 mi
5:00 AM55 °FPassing clouds.6 mph78%29.72 "Hg25 mi
4:00 AM56 °FPassing clouds.6 mph76%29.72 "Hg25 mi
3:00 AM59 °FPassing clouds.6 mph71%29.72 "Hg25 mi
2:00 AM59 °FOvercast.6 mph71%29.72 "Hg25 mi
1:00 AM60 °FPassing clouds.7 mph69%29.72 "Hg25 mi
11:00 PM
Tue, Jul 28
61 °FOvercast.5 mph71%29.70 "Hg22 mi
10:00 PM62 °FOvercast.7 mph67%29.70 "Hg22 mi
9:00 PM63 °FOvercast.5 mph67%29.68 "Hg22 mi
8:00 PM64 °FOvercast.6 mph66%29.67 "Hg25 mi
7:00 PM63 °FOvercast.7 mph68%29.67 "Hg25 mi
6:00 PM66 °FOvercast.12 mph55%29.66 "Hg25 mi
5:00 PM67 °FOvercast.7 mph62%29.64 "Hg25 mi
4:00 PM66 °FSprinkles. Overcast.6 mph62%29.65 "Hg25 mi
3:00 PM67 °FOvercast.8 mph57%29.64 "Hg22 mi
2:00 PM64 °FOvercast.7 mph67%29.65 "Hg22 mi
Weather by CustomWeather, © 2015

See weather overviewHow to use our weather pages